sat.trackr.live / text

‹ back to catalog

STARLINK-35482

NORAD 66346 · 2025-253AD

PAYLOAD ACTIVE UNKNOWN

§ Identity

Operator
Country
US
Launch date
2025-11-06
Launch site
AFETR
Launch vehicle
Mass (kg)
RCS (m²)

Purposes: comms

External: N2YO · Heavens-Above · Gunter

§ Orbital elements

Epoch: 2026-05-25T00:59:54.633120Z

Period
94.27 min
Inclination
42.9978°
Eccentricity
0.0000905
Mean motion
15.27589397 rev/d
Perigee alt
482.4 km
Apogee alt
483.6 km
Semi-major
6,861.2 km
B*
4.6475e-4
RAAN
141.1237°
Arg perigee
257.1518°
Mean anomaly
102.9232°
Rev number
3,192

§ Raw data

STARLINK-354821 66346U 25253AD  26145.04160455  .00012552  00000+0  46475-3 0  99982 66346  42.9978 141.1237 0000905 257.1518 102.9232 15.27589397 31928

JSON: /api/v1/satellites/66346 · /tle

For live sub-satellite position, see the globe view (requires WebGL).

§ Visibility from observer

Set your observer location to see the next 7 days of passes ≥ 10°. The values pass through the URL so the page stays shareable.

No JS? Fill the form by hand. The geolocation button needs JavaScript.